EW4691 Weather Reports


Display with metric or nautical units.
time (UTC)temp
F
wind
direction
speed
MPH
gust
MPH
rain 1hr
in
rain 24hr
in
rain mn
in
humidity
%
barometer
mb
20260509053104 69 120 4.0 9.0 0.00 0.00 0.00 61 1022.0
20260509051540 69 113 3.0 8.0 0.00 0.00 0.00 61 1021.9
20260509050006 69 173 4.0 9.0 0.00 0.00 0.00 59 1021.8
20260509044544 69 150 4.0 7.0 0.00 0.00 0.00 60 1021.8
20260509043018 69 160 6.0 9.0 0.00 0.00 0.00 59 1021.9
20260509041558 70 153 4.0 8.0 0.00 0.00 0.00 60 1021.8
20260509041502 70 137 4.0 8.0 0.00 0.00 0.00 60 1021.8
20260509040024 70 163 4.0 8.0 0.00 0.00 0.00 59 1021.8
20260509034506 70 166 3.0 8.0 0.00 0.00 0.00 59 1021.8
20260509033050 70 138 3.0 9.0 0.00 0.00 0.00 59 1021.9
20260509031534 70 155 3.0 10.0 0.00 0.00 0.00 59 1022.0
20260509030055 71 171 2.0 7.0 0.00 0.00 0.00 57 1022.2
20260509024538 71 119 3.0 8.0 0.00 0.00 0.00 56 1022.4
20260509023022 70 153 3.0 7.0 0.00 0.00 0.00 53 1022.6
20260509021511 70 103 2.0 8.0 0.00 0.00 0.00 53 1022.7
20260509020029 70 102 1.0 5.0 0.00 0.00 0.00 54 1023.0
20260509014504 71 125 2.0 7.0 0.00 0.00 0.00 52 1023.0
20260509013106 72 126 1.0 4.0 0.00 0.00 0.00 52 1023.2
20260509011522 71 148 2.0 5.0 0.00 0.00 0.00 52 1023.3
20260509010036 70 316 2.0 5.0 0.00 0.00 0.00 55 1023.4
20260509004516 70 294 1.0 5.0 0.00 0.00 0.00 55 1023.5
20260509003058 69 283 1.0 5.0 0.00 0.00 0.00 57 1023.5
20260509001532 69 309 2.0 4.0 0.00 0.00 0.00 57 1023.6
20260509000054 68 9 1.0 4.0 0.00 0.00 0.00 59 1023.7
20260508234531 66 268 0.0 3.0 0.00 0.00 0.00 61 1023.5
20260508233011 64 267 1.0 8.0 0.00 0.00 0.00 64 1023.6
20260508231551 63 293 2.0 6.0 0.00 0.00 0.00 65 1023.5
20260508224557 61 266 1.0 4.0 0.00 0.00 0.00 68 1023.4
20260508223030 60 263 1.0 5.0 0.00 0.00 0.00 69 1023.4
20260508221606 59 278 1.0 6.0 0.00 0.00 0.00 69 1023.2
20260508221502 59 203 1.0 6.0 0.00 0.00 0.00 69 1023.2
20260508220020 59 291 0.0 4.0 0.00 0.00 0.00 69 1023.1
20260508214600 59 207 1.0 6.0 0.00 0.00 0.00 70 1023.1
20260508214502 59 185 2.0 7.0 0.00 0.00 0.00 70 1023.1
20260508213039 58 235 1.0 6.0 0.00 0.00 0.00 70 1023.0
20260508211517 57 279 1.0 4.0 0.00 0.00 0.00 73 1022.7
20260508210035 55 27 0.0 3.0 0.00 0.00 0.00 75 1022.7
20260508204521 55 355 1.0 5.0 0.00 0.00 0.00 75 1022.5
20260508203108 55 37 1.0 3.0 0.00 0.00 0.00 75 1022.2
20260508121533 58 279 0.0 5.0 0.00 0.00 0.00 69 1020.2
20260508120057 58 244 0.0 4.0 0.00 0.00 0.00 68 1020.2
20260508114535 58 163 1.0 6.0 0.00 0.00 0.00 68 1020.2
20260508113017 58 242 3.0 8.0 0.00 0.00 0.00 67 1020.2
20260508111601 59 167 2.0 9.0 0.00 0.00 0.00 66 1020.0
20260508111502 59 204 2.0 9.0 0.00 0.00 0.00 66 1020.0
20260508110018 59 316 3.0 8.0 0.00 0.00 0.00 66 1019.7
20260508104558 59 267 1.0 7.0 0.00 0.00 0.00 65 1019.8
20260508103036 59 202 2.0 7.0 0.00 0.00 0.00 65 1019.5
20260508101524 60 157 1.0 7.0 0.00 0.00 0.00 64 1019.5
20260508100043 60 341 1.0 6.0 0.00 0.00 0.00 63 1019.4
20260508094525 61 267 1.0 5.0 0.00 0.00 0.00 62 1019.0
20260508093007 61 201 3.0 10.0 0.00 0.00 0.00 61 1018.8
20260508091609 61 269 4.0 10.0 0.00 0.00 0.00 60 1018.7
20260508090013 62 212 2.0 12.0 0.00 0.00 0.00 59 1018.5
20260508084548 62 326 3.0 10.0 0.00 0.00 0.00 59 1018.2
20260508083037 62 248 2.0 6.0 0.00 0.00 0.00 57 1018.3
20260508081515 63 229 2.0 8.0 0.00 0.00 0.00 56 1018.0
20260508080041 63 227 2.0 6.0 0.00 0.00 0.00 55 1017.8
20260508074522 63 217 4.0 11.0 0.00 0.00 0.00 54 1017.3
20260508073058 64 229 1.0 6.0 0.00 0.00 0.00 54 1017.1
20260508071541 64 244 2.0 10.0 0.00 0.00 0.00 53 1016.7
20260508070006 65 219 0.0 3.0 0.00 0.00 0.00 52 1016.4
20260508064549 67 217 0.0 6.0 0.00 0.00 0.00 50 1016.0
20260508063048 68 180 2.0 10.0 0.00 0.00 0.00 47 1015.6
20260508061511 70 190 1.0 4.0 0.00 0.00 0.00 48 1015.4
20260508060039 71 196 2.0 4.0 0.00 0.00 0.00 47 1015.1
20260508054525 71 303 2.0 8.0 0.00 0.00 0.00 46 1014.9